When you browse on this site, cookies collect data to enhance your experience and personalize the content and advertising you see.
Visit our Privacy Policy to learn more. By continuing to use the site, you agree to this use of cookies and data.
  • In United Kingdom
  • List of Countries
  • For 7 days
  • Water Temperature
  • Satellite Maps
  • Weather Map
  • Weather Widgets
  • user-avatar
    Login

    Hourly Weather Yerevan

    Today, 23 May, Thursday

    Time Temperature Precipitation Wind Pressure Humidity
    00:00 +19°C° 0 mm 1 mps 691 mmHg 59%
    01:00 +18°C° 0 mm 1 mps 691 mmHg 59%
    02:00 +18°C° 0 mm 1 mps 691 mmHg 60%
    03:00 +16°C° 0 mm 1 mps 690 mmHg 62%
    04:00 +16°C° 0 mm 1 mps 690 mmHg 60%
    05:00 +18°C° 0 mm 1 mps 690 mmHg 58%
    06:00 +19°C° 0 mm 1 mps 690 mmHg 55%
    07:00 +19°C° 0 mm 2 mps 690 mmHg 50%
    08:00 +21°C° 0 mm 2 mps 690 mmHg 45%
    09:00 +23°C° 0 mm 2 mps 690 mmHg 40%
    10:00 +24°C° 0 mm 2 mps 690 mmHg 38%
    11:00 +25°C° 0 mm 2 mps 690 mmHg 37%
    12:00 +26°C° 0 mm 2 mps 690 mmHg 35%
    13:00 +26°C° 0.1 mm 2 mps 690 mmHg 35%
    14:00 +27°C° 0.1 mm 2 mps 689 mmHg 35%
    15:00 +27°C° 0.1 mm 2 mps 689 mmHg 35%
    16:00 +27°C° 0.2 mm 2 mps 689 mmHg 37%
    17:00 +26°C° 0.2 mm 1 mps 689 mmHg 39%
    18:00 +26°C° 0.2 mm 1 mps 689 mmHg 41%
    19:00 +24°C° 0.1 mm 1 mps 689 mmHg 46%
    20:00 +23°C° 0.1 mm 1 mps 690 mmHg 51%
    21:00 +21°C° 0.1 mm 1 mps 690 mmHg 56%
    22:00 +21°C° 0.1 mm 1 mps 690 mmHg 57%
    23:00 +20°C° 0.1 mm 1 mps 690 mmHg 58%

    Tomorrow, 24 May, Friday

    Time Temperature Precipitation Wind Pressure Humidity
    00:00 +20°C° 0.1 mm 1 mps 690 mmHg 59%
    01:00 +19°C° 0.1 mm 2 mps 690 mmHg 59%
    02:00 +19°C° 0.1 mm 2 mps 690 mmHg 59%
    03:00 +19°C° 0.1 mm 2 mps 690 mmHg 59%
    04:00 +19°C° 0.1 mm 2 mps 690 mmHg 59%
    05:00 +19°C° 0.1 mm 2 mps 690 mmHg 58%
    06:00 +19°C° 0.1 mm 2 mps 690 mmHg 58%
    07:00 +21°C° 0 mm 2 mps 690 mmHg 53%
    08:00 +22°C° 0 mm 3 mps 690 mmHg 47%
    09:00 +25°C° 0 mm 3 mps 690 mmHg 42%
    10:00 +26°C° 0.1 mm 3 mps 689 mmHg 40%
    11:00 +27°C° 0.1 mm 3 mps 689 mmHg 37%
    12:00 +28°C° 0.1 mm 3 mps 689 mmHg 35%
    13:00 +29°C° 0.1 mm 3 mps 689 mmHg 33%
    14:00 +30°C° 0.1 mm 2 mps 689 mmHg 30%
    15:00 +31°C° 0.1 mm 2 mps 689 mmHg 28%
    16:00 +30°C° 0.2 mm 2 mps 689 mmHg 30%
    17:00 +30°C° 0.2 mm 2 mps 690 mmHg 32%
    18:00 +29°C° 0.2 mm 2 mps 690 mmHg 33%
    19:00 +27°C° 0.1 mm 2 mps 690 mmHg 37%
    20:00 +25°C° 0.1 mm 3 mps 690 mmHg 41%
    21:00 +22°C° 0.1 mm 3 mps 691 mmHg 44%
    22:00 +22°C° 0 mm 3 mps 691 mmHg 45%
    23:00 +21°C° 0 mm 3 mps 691 mmHg 45%

    Day after tomorrow, 25 May, Saturday

    Time Temperature Precipitation Wind Pressure Humidity
    00:00 +21°C° 0 mm 2 mps 691 mmHg 46%
    01:00 +21°C° 0 mm 2 mps 691 mmHg 44%
    02:00 +20°C° 0 mm 2 mps 691 mmHg 43%
    03:00 +20°C° 0 mm 2 mps 691 mmHg 42%
    04:00 +21°C° 0 mm 2 mps 691 mmHg 41%
    05:00 +21°C° 0 mm 2 mps 691 mmHg 40%
    06:00 +21°C° 0 mm 2 mps 691 mmHg 39%
    07:00 +24°C° 0 mm 3 mps 691 mmHg 35%
    08:00 +27°C° 0 mm 3 mps 691 mmHg 30%
    09:00 +29°C° 0 mm 3 mps 692 mmHg 25%
    10:00 +30°C° 0 mm 4 mps 691 mmHg 23%
    11:00 +32°C° 0 mm 4 mps 691 mmHg 21%
    12:00 +34°C° 0 mm 4 mps 691 mmHg 19%
    13:00 +33°C° 0.2 mm 4 mps 691 mmHg 20%
    14:00 +33°C° 0.2 mm 4 mps 690 mmHg 21%
    15:00 +33°C° 0.2 mm 4 mps 690 mmHg 22%
    16:00 +33°C° 0.1 mm 4 mps 690 mmHg 24%
    17:00 +32°C° 0.1 mm 4 mps 690 mmHg 25%
    18:00 +30°C° 0.1 mm 4 mps 689 mmHg 27%
    19:00 +29°C° 0.1 mm 3 mps 689 mmHg 28%
    20:00 +27°C° 0.1 mm 3 mps 690 mmHg 29%
    21:00 +25°C° 0.1 mm 3 mps 690 mmHg 31%
    22:00 +24°C° 0.1 mm 3 mps 690 mmHg 32%
    23:00 +24°C° 0.1 mm 3 mps 690 mmHg 33%

    26 May, Sunday

    Time Temperature Precipitation Wind Pressure Humidity
    00:00 +23°C° 0.1 mm 2 mps 689 mmHg 34%
    01:00 +21°C° 0.1 mm 2 mps 689 mmHg 35%
    02:00 +21°C° 0.1 mm 2 mps 689 mmHg 35%
    03:00 +21°C° 0.1 mm 2 mps 689 mmHg 35%
    04:00 +21°C° 0.1 mm 2 mps 689 mmHg 37%
    05:00 +21°C° 0.1 mm 2 mps 689 mmHg 38%
    06:00 +23°C° 0.1 mm 2 mps 689 mmHg 39%
    07:00 +25°C° 0 mm 2 mps 689 mmHg 35%
    08:00 +27°C° 0 mm 2 mps 689 mmHg 30%
    09:00 +29°C° 0 mm 2 mps 689 mmHg 26%
    10:00 +30°C° 0.2 mm 3 mps 689 mmHg 26%
    11:00 +30°C° 0.2 mm 3 mps 689 mmHg 25%
    12:00 +32°C° 0.2 mm 4 mps 688 mmHg 25%
    13:00 +32°C° 0.1 mm 4 mps 688 mmHg 25%
    14:00 +31°C° 0.1 mm 3 mps 688 mmHg 24%
    15:00 +33°C° 0.1 mm 3 mps 688 mmHg 24%
    16:00 +31°C° 0 mm 3 mps 688 mmHg 25%
    17:00 +30°C° 0 mm 3 mps 688 mmHg 27%
    18:00 +30°C° 0 mm 3 mps 688 mmHg 28%
    19:00 +28°C° 0 mm 3 mps 689 mmHg 30%
    20:00 +26°C° 0 mm 3 mps 689 mmHg 32%
    21:00 +24°C° 0 mm 3 mps 690 mmHg 33%
    22:00 +21°C° 0 mm 3 mps 690 mmHg 39%
    23:00 +20°C° 0 mm 3 mps 690 mmHg 44%

    27 May, Monday

    Time Temperature Precipitation Wind Pressure Humidity
    00:00 +19°C° 0 mm 3 mps 690 mmHg 49%
    01:00 +18°C° 0 mm 3 mps 690 mmHg 51%
    02:00 +17°C° 0 mm 2 mps 690 mmHg 53%
    03:00 +16°C° 0 mm 2 mps 690 mmHg 55%
    04:00 +17°C° 0 mm 2 mps 691 mmHg 54%
    05:00 +19°C° 0 mm 1 mps 691 mmHg 52%
    06:00 +20°C° 0 mm 1 mps 692 mmHg 51%
    07:00 +21°C° 0 mm 1 mps 692 mmHg 45%
    08:00 +23°C° 0 mm 2 mps 692 mmHg 39%
    09:00 +24°C° 0 mm 2 mps 692 mmHg 33%
    10:00 +25°C° 0 mm 2 mps 692 mmHg 30%
    11:00 +27°C° 0 mm 2 mps 692 mmHg 27%
    12:00 +28°C° 0 mm 2 mps 692 mmHg 24%
    13:00 +28°C° 0 mm 2 mps 692 mmHg 23%
    14:00 +29°C° 0 mm 2 mps 692 mmHg 22%
    15:00 +30°C° 0 mm 2 mps 692 mmHg 21%
    16:00 +29°C° 0 mm 2 mps 692 mmHg 22%
    17:00 +29°C° 0 mm 1 mps 692 mmHg 24%
    18:00 +29°C° 0 mm 1 mps 692 mmHg 25%
    19:00 +27°C° 0 mm 1 mps 692 mmHg 29%
    20:00 +25°C° 0 mm 2 mps 693 mmHg 33%
    21:00 +23°C° 0 mm 2 mps 693 mmHg 37%
    22:00 +21°C° 0 mm 2 mps 693 mmHg 41%
    23:00 +20°C° 0 mm 2 mps 693 mmHg 45%

    28 May, Tuesday

    Time Temperature Precipitation Wind Pressure Humidity
    00:00 +19°C° 0 mm 2 mps 693 mmHg 49%
    01:00 +19°C° 0 mm 2 mps 693 mmHg 50%
    02:00 +18°C° 0 mm 2 mps 693 mmHg 52%
    03:00 +17°C° 0 mm 2 mps 693 mmHg 54%
    04:00 +19°C° 0 mm 1 mps 693 mmHg 53%
    05:00 +20°C° 0 mm 1 mps 694 mmHg 52%
    06:00 +21°C° 0 mm 1 mps 694 mmHg 51%
    07:00 +22°C° 0 mm 1 mps 694 mmHg 46%
    08:00 +24°C° 0 mm 1 mps 694 mmHg 40%
    09:00 +26°C° 0 mm 1 mps 694 mmHg 34%
    10:00 +27°C° 0 mm 1 mps 694 mmHg 31%
    11:00 +28°C° 0 mm 1 mps 694 mmHg 27%
    12:00 +30°C° 0 mm 2 mps 694 mmHg 24%
    13:00 +30°C° 0 mm 2 mps 694 mmHg 23%
    14:00 +31°C° 0 mm 2 mps 693 mmHg 21%
    15:00 +31°C° 0 mm 2 mps 693 mmHg 20%
    16:00 +31°C° 0 mm 1 mps 693 mmHg 21%
    17:00 +31°C° 0 mm 1 mps 693 mmHg 23%
    18:00 +30°C° 0 mm 1 mps 693 mmHg 25%
    19:00 +28°C° 0 mm 1 mps 694 mmHg 31%
    20:00 +26°C° 0 mm 2 mps 694 mmHg 38%
    21:00 +23°C° 0 mm 2 mps 694 mmHg 45%
    22:00 +23°C° 0 mm 2 mps 694 mmHg 50%
    23:00 +21°C° 0 mm 2 mps 694 mmHg 55%
    Show more